Weather History for West Yellowstone, MT

Change the Weather History Date:

Thursday, November 1, 2012

  Actual Average Record
Temperature  
Mean Temperature 37 °F -  
Max Temperature 48 °F 39 °F 48 °F (2012)
Min Temperature 26 °F 16 °F 17 °F (2013)
Degree Days  
Heating Degree Days 28    
Moisture  
Dew Point -    
Average Humidity    
Maximum Humidity    
Minimum Humidity    
Precipitation  
Precipitation 0.00 in - - ()
Sea Level Pressure  
Sea Level Pressure 30.00 in    
Wind  
Wind Speed 5 mph (SSW)    
Max Wind Speed 23 mph    
Max Gust Speed 39 mph    
Visibility 10 miles    
Events Rain    
Averages and records for this station are not official NWS values.
T = Trace of Precipitation, MM = Missing Value Source: NWS Daily Summary

Daily Weather History Graph

Daily Weather History Graph

Search for Another Location

Airport:

Trip Planner

Search our weather history database for the weather conditions in past years. The results will help you decide how hot, cold, wet, or windy it might be!

Date:

Astronomy

Nov. 01, 2012 Rise Set
Actual Time 8:03 AM MDT 6:12 PM MDT
Civil Twilight 7:32 AM MDT 6:42 PM MDT
Nautical Twilight 6:58 AM MDT 7:17 PM MDT
Astronomical Twilight 6:24 AM MDT 7:51 PM MDT
Moon 8:07 PM MDT (11/1) 10:43 AM MDT (11/1)
Length of Visible Light 11h 10m
Length of Day
10h 09m
Waning Gibbous, 92% of the Moon is Illuminated
Nov 1
Waning Gibbous
Nov 6
Last Quarter
Nov 13
New
Nov 20
First Quarter
Nov 28
Full

Hourly Weather History & Observations

Time (MDT) Temp. Windchill Dew Point Humidity Pressure Visibility Wind Dir Wind Speed Gust Speed Precip Events Conditions
12:10 AM 32.0 °F 28.7 °F - N/A% 30.06 in 10.0 mi SSE 3.5 mph - N/A   Clear
12:30 AM 32.0 °F 27.5 °F - N/A% 30.05 in 10.0 mi SSW 4.6 mph - N/A   Clear
12:50 AM 32.0 °F 28.7 °F - N/A% 30.04 in 10.0 mi SSW 3.5 mph - N/A   Clear
1:10 AM 30.2 °F - - N/A% 30.04 in 10.0 mi Calm Calm - N/A   Clear
1:30 AM 28.4 °F 24.6 °F - N/A% 30.03 in 10.0 mi WSW 3.5 mph - N/A   Clear
1:50 AM 28.4 °F - - N/A% 30.03 in 10.0 mi Calm Calm - N/A   Clear
2:10 AM 26.6 °F - - N/A% 30.03 in 10.0 mi Calm Calm - N/A   Clear
2:30 AM 26.6 °F - - N/A% 30.02 in 10.0 mi Calm Calm - N/A   Clear
3:10 AM 26.6 °F - - N/A% 30.02 in 10.0 mi Calm Calm - N/A   Clear
3:30 AM 28.4 °F - - N/A% 30.01 in 10.0 mi Calm Calm - N/A   Clear
3:50 AM 26.6 °F - - N/A% 30.01 in 10.0 mi Calm Calm - N/A   Clear
4:10 AM 26.6 °F - - N/A% 30.00 in 10.0 mi Calm Calm - N/A   Clear
4:30 AM 26.6 °F - - N/A% 30.00 in 10.0 mi Calm Calm - N/A   Clear
4:50 AM 26.6 °F - - N/A% 29.99 in 10.0 mi Calm Calm - N/A   Clear
5:10 AM 26.6 °F - - N/A% 29.99 in 10.0 mi Calm Calm - N/A   Clear
5:30 AM 26.6 °F - - N/A% 29.99 in 10.0 mi Calm Calm - N/A   Clear
5:50 AM 26.6 °F - - N/A% 29.98 in 10.0 mi Calm Calm - N/A   Clear
6:10 AM 26.6 °F - - N/A% 29.97 in 10.0 mi Calm Calm - N/A   Clear
6:30 AM 28.4 °F - - N/A% 29.97 in 10.0 mi Calm Calm - N/A   Clear
6:50 AM 28.4 °F 23.3 °F - N/A% 29.97 in 10.0 mi WNW 4.6 mph - N/A   Clear
7:30 AM 26.6 °F - - N/A% 29.97 in 10.0 mi Calm Calm - N/A   Clear
8:10 AM 28.4 °F - - N/A% 29.98 in 10.0 mi Calm Calm - N/A   Clear
8:30 AM 30.2 °F - - N/A% 29.98 in 10.0 mi Calm Calm - N/A   Clear
9:10 AM 39.2 °F 33.6 °F - N/A% 29.98 in 10.0 mi SSE 8.1 mph - N/A   Clear
9:30 AM 42.8 °F 38.6 °F - N/A% 29.99 in 10.0 mi SSE 6.9 mph - N/A   Partly Cloudy
9:50 AM 44.6 °F 40.7 °F - N/A% 30.00 in 10.0 mi ESE 6.9 mph - N/A   Partly Cloudy
10:10 AM 44.6 °F 40.7 °F - N/A% 30.00 in 10.0 mi SSW 6.9 mph - N/A   Scattered Clouds
10:30 AM 44.6 °F 40.7 °F - N/A% 30.00 in 10.0 mi SSW 6.9 mph - N/A   Mostly Cloudy
10:50 AM 46.4 °F 41.9 °F - N/A% 30.00 in 10.0 mi South 9.2 mph - N/A   Overcast
11:10 AM 48.2 °F - - N/A% 29.99 in 10.0 mi South 9.2 mph 19.6 mph N/A   Overcast
11:30 AM 48.2 °F - - N/A% 29.99 in 10.0 mi South 12.7 mph - N/A   Overcast
12:10 PM 46.4 °F 39.8 °F - N/A% 30.00 in 10.0 mi SSW 16.1 mph - N/A   Scattered Clouds
12:30 PM 46.4 °F 40.7 °F - N/A% 30.00 in 10.0 mi SSW 12.7 mph - N/A   Mostly Cloudy
12:50 PM 46.4 °F 41.9 °F - N/A% 29.99 in 10.0 mi South 9.2 mph 17.3 mph N/A   Mostly Cloudy
1:10 PM 46.4 °F 40.1 °F - N/A% 29.98 in 8.0 mi SSW 15.0 mph 24.2 mph N/A Rain Light Rain
1:30 PM 48.2 °F - - N/A% 29.96 in 10.0 mi SW 16.1 mph 28.8 mph N/A   Clear
1:50 PM 48.2 °F - - N/A% 29.95 in 10.0 mi SW 12.7 mph 23.0 mph N/A   Clear
2:30 PM 44.6 °F 40.7 °F - N/A% 29.96 in 9.0 mi SW 6.9 mph 26.5 mph N/A Rain Light Rain
3:10 PM 44.6 °F 35.9 °F - N/A% 29.96 in 10.0 mi SW 23.0 mph 31.1 mph N/A   Mostly Cloudy
3:30 PM 42.8 °F 37.5 °F - N/A% 29.96 in 7.0 mi SW 9.2 mph 28.8 mph N/A Rain Light Rain
4:10 PM 41.0 °F 31.1 °F - N/A% 29.95 in 3.0 mi SW 23.0 mph 39.1 mph N/A Rain Light Rain
4:30 PM 39.2 °F 32.5 °F - N/A% 29.97 in 3.0 mi SW 10.4 mph 23.0 mph N/A Rain Light Rain
5:10 PM 41.0 °F 35.8 °F - N/A% 29.97 in 10.0 mi East 8.1 mph - N/A   Overcast
5:30 PM 41.0 °F 39.0 °F - N/A% 29.98 in 10.0 mi East 3.5 mph - N/A   Overcast
5:50 PM 41.0 °F - - N/A% 29.98 in 10.0 mi Calm Calm - N/A   Overcast
6:10 PM 41.0 °F 36.4 °F - N/A% 29.98 in 10.0 mi SW 6.9 mph - N/A   Overcast
6:30 PM 41.0 °F 34.7 °F - N/A% 29.98 in 10.0 mi SW 10.4 mph - N/A   Overcast
6:50 PM 39.2 °F 32.0 °F - N/A% 29.98 in 10.0 mi SW 11.5 mph 16.1 mph N/A   Overcast
7:10 PM 39.2 °F 32.0 °F - N/A% 29.99 in 10.0 mi SSW 11.5 mph 19.6 mph N/A   Overcast
7:30 PM 39.2 °F 29.6 °F - N/A% 29.98 in 10.0 mi SW 19.6 mph 23.0 mph N/A   Mostly Cloudy
7:50 PM 39.2 °F 32.0 °F - N/A% 29.99 in 10.0 mi SW 11.5 mph 23.0 mph N/A   Scattered Clouds
8:10 PM 39.2 °F 34.2 °F - N/A% 30.01 in 10.0 mi SSW 6.9 mph - N/A   Mostly Cloudy
8:30 PM 39.2 °F 31.2 °F - N/A% 30.01 in 10.0 mi SSW 13.8 mph 19.6 mph N/A   Overcast
8:50 PM 39.2 °F 31.6 °F - N/A% 30.01 in 10.0 mi SW 12.7 mph 18.4 mph N/A   Overcast
9:10 PM 37.4 °F 29.3 °F - N/A% 30.01 in 10.0 mi SSW 12.7 mph - N/A   Overcast
9:30 PM 37.4 °F 32.1 °F - N/A% 30.03 in 10.0 mi SW 6.9 mph - N/A   Mostly Cloudy
9:50 PM 37.4 °F 32.1 °F - N/A% 30.03 in 10.0 mi SW 6.9 mph - N/A   Mostly Cloudy
10:10 PM 37.4 °F 31.4 °F - N/A% 30.04 in 10.0 mi SW 8.1 mph - N/A   Partly Cloudy
10:30 PM 35.6 °F 28.6 °F - N/A% 30.04 in 10.0 mi WSW 9.2 mph - N/A   Clear
10:50 PM 37.4 °F 31.4 °F - N/A% 30.05 in 10.0 mi WSW 8.1 mph - N/A   Clear
11:10 PM 35.6 °F 28.6 °F - N/A% 30.05 in 10.0 mi WSW 9.2 mph - N/A   Clear
11:30 PM 35.6 °F 26.6 °F - N/A% 30.04 in 10.0 mi SW 13.8 mph - N/A   Partly Cloudy
11:50 PM 35.6 °F 28.0 °F - N/A% 30.05 in 10.0 mi SW 10.4 mph - N/A   Partly Cloudy